Вернуться в каталог

STARLINK-11442

АктивенСвязьVLEO
NORAD 62885·PAYLOAD·🇺🇸 United States

Запущен Feb 4, 2025 с Cape Canaveral Space Force Station

Loading…

Ближайшие Пролёты (ближайшие 24 часа)

TLE

СвежийSource: CelesTrak SupGP

Эпоха: Sep 15, 2026, 02:46 UTC

1 62885C 25024G   26258.11576389  .00111970  00000+0  86970-3 0  2584
2 62885  43.0001 119.2769 0001801 275.8959  49.6830 15.70780874    17

Отслеживайте STARLINK-11442 в реальном времени с AllMySat

Download on the App Store